Location: Azul
(36.7830°S, 59.8500°W)
Time: 01:25:51
(UTC-03:00)

ZACube-1 - Visible Passes

Search period start: 23 October 2021 00:00
Search period end: 02 November 2021 00:00
Orbit: 582 x 666 km, 97.6° (Epoch: 22 October)

Date Brightness Start Highest point End Pass type
(mag) Time Alt. Az. Time Alt. Az. Time Alt. Az.
23 Oct ? 03:29:35 10° E 03:32:00 15° ESE 03:34:27 10° SSE visible
23 Oct ? 05:03:26 10° N 05:07:43 49° W 05:12:10 10° SSW visible
24 Oct ? 03:46:53 10° ENE 03:50:20 22° ESE 03:53:53 10° SSE visible
24 Oct ? 05:22:26 10° NNW 05:26:21 30° W 05:30:22 10° SW visible
25 Oct ? 04:04:41 10° NE 04:08:44 35° ESE 04:12:54 10° S visible
26 Oct ? 04:22:49 10° NNE 04:27:11 57° ESE 04:31:41 10° S visible
27 Oct ? 04:41:12 10° NNE 04:45:41 88° W 04:50:18 10° SSW visible
28 Oct ? 03:26:17 10° E 03:28:34 14° ESE 03:30:52 10° SE visible
28 Oct ? 04:59:52 10° N 05:04:14 53° W 05:08:46 10° SSW visible
29 Oct ? 03:43:29 10° ENE 03:46:53 21° ESE 03:50:22 10° SSE visible
29 Oct ? 05:18:48 10° NNW 05:22:51 33° W 05:27:01 10° SSW visible
30 Oct ? 04:01:14 10° NE 04:05:16 33° ESE 04:09:25 10° S visible
31 Oct ? 04:19:19 10° NNE 04:23:43 53° ESE 04:28:13 10° S visible
01 Nov ? 04:37:40 10° NNE 04:42:12 86° ESE 04:46:52 10° S visible
